Weather History for Twin Falls, ID

Change the Weather History Date:

Sunday, June 8, 2014

  Actual Average Record
Temperature  
Mean Temperature 64 °F -  
Max Temperature 80 °F 77 °F 95 °F (1985)
Min Temperature 47 °F 48 °F 35 °F (1999)
Degree Days  
Heating Degree Days 1 4  
Month to date heating degree days 3 40  
Since 1 June heating degree days 3 40  
Since 1 July heating degree days 5520 6124  
Cooling Degree Days 0 2  
Month to date cooling degree days 22 13  
Year to date cooling degree days 55 35  
Since 1 June cooling degree days 22 13  
Growing Degree Days 14 (Base 50)    
Moisture  
Dew Point 32 °F    
Average Humidity 36    
Maximum Humidity 56    
Minimum Humidity 16    
Precipitation  
Precipitation 0.00 in 0.04 in 1.47 in (2006)
Month to date precipitation T 0.31  
Year to date precipitation 5.59 5.64  
Sea Level Pressure  
Sea Level Pressure 29.94 in    
Wind  
Wind Speed 10 mph (WSW)    
Max Wind Speed 18 mph    
Max Gust Speed 25 mph    
Visibility 10 miles    
Events      
T = Trace of Precipitation, MM = Missing Value Source: NWS Daily Summary

Daily Weather History Graph

Daily Weather History Graph

Search for Another Location

Airport:

Trip Planner

Search our weather history database for the weather conditions in past years. The results will help you decide how hot, cold, wet, or windy it might be!

Date:

Astronomy

Jun. 08, 2014 Rise Set
Actual Time 6:00 AM MDT 9:13 PM MDT
Civil Twilight 5:26 AM MDT 9:48 PM MDT
Nautical Twilight 4:41 AM MDT 10:32 PM MDT
Astronomical Twilight 3:48 AM MDT 11:26 PM MDT
Moon 4:31 PM MDT (6/8) 3:01 AM MDT (6/8)
Length of Visible Light 16h 21m
Length of Day
15h 12m
Waxing Gibbous, 77% of the Moon is Illuminated
Jun 8
Waxing Gibbous
Jun 12
Full
Jun 19
Last Quarter
Jun 27
New
Jul 5
First Quarter

Hourly Weather History & Observations

Time (MDT) Temp. Dew Point Humidity Pressure Visibility Wind Dir Wind Speed Gust Speed Precip Events Conditions
12:53 AM 60.1 °F 28.0 °F 30% 29.85 in 10.0 mi SW 15.0 mph - N/A   Clear
1:53 AM 61.0 °F 28.0 °F 29% 29.84 in 10.0 mi SW 17.3 mph - N/A   Clear
2:53 AM 60.1 °F 28.9 °F 31% 29.86 in 10.0 mi WSW 16.1 mph - N/A   Clear
3:53 AM 57.0 °F 30.9 °F 37% 29.89 in 10.0 mi WSW 12.7 mph - N/A   Clear
4:53 AM 55.0 °F 34.0 °F 45% 29.92 in 10.0 mi WSW 4.6 mph - N/A   Clear
5:53 AM 50.0 °F 35.1 °F 57% 29.95 in 10.0 mi SSW 9.2 mph - N/A   Clear
6:53 AM 55.0 °F 35.1 °F 47% 29.96 in 10.0 mi SSW 8.1 mph - N/A   Clear
7:53 AM 59.0 °F 36.0 °F 42% 29.99 in 10.0 mi SSW 11.5 mph - N/A   Clear
8:53 AM 62.1 °F 35.1 °F 37% 30.00 in 10.0 mi SW 6.9 mph - N/A   Clear
9:53 AM 66.0 °F 35.1 °F 32% 30.01 in 10.0 mi SSW 6.9 mph - N/A   Clear
10:53 AM 69.1 °F 35.1 °F 29% 30.00 in 10.0 mi SW 8.1 mph - N/A   Clear
11:53 AM 72.0 °F 36.0 °F 27% 29.99 in 10.0 mi WNW 8.1 mph 16.1 mph N/A   Clear
12:53 PM 75.0 °F 35.1 °F 23% 29.99 in 10.0 mi WNW 12.7 mph - N/A   Clear
1:53 PM 75.9 °F 35.1 °F 23% 29.97 in 10.0 mi WNW 10.4 mph 16.1 mph N/A   Clear
2:53 PM 78.1 °F 33.1 °F 19% 29.97 in 10.0 mi West 11.5 mph - N/A   Clear
3:53 PM 78.1 °F 28.9 °F 17% 29.96 in 10.0 mi NNW 10.4 mph - N/A   Clear
4:53 PM 79.0 °F 30.0 °F 17% 29.95 in 10.0 mi NNW 11.5 mph 17.3 mph N/A   Clear
5:53 PM 79.0 °F 30.0 °F 17% 29.95 in 10.0 mi West 9.2 mph - N/A   Clear
6:53 PM 79.0 °F 28.9 °F 16% 29.93 in 10.0 mi WNW 9.2 mph - N/A   Clear
7:53 PM 77.0 °F 28.9 °F 17% 29.92 in 10.0 mi West 5.8 mph - N/A   Clear
8:53 PM 70.0 °F 33.1 °F 26% 29.93 in 10.0 mi SW 3.5 mph - N/A   Clear
9:53 PM 64.0 °F 33.1 °F 31% 29.94 in 10.0 mi SSW 6.9 mph - N/A   Clear
10:53 PM 59.0 °F 33.1 °F 38% 29.96 in 10.0 mi SSW 8.1 mph - N/A   Clear
11:53 PM 57.9 °F 33.1 °F 39% 29.94 in 10.0 mi South 8.1 mph - N/A   Clear